Weather History for MMHO - January, 2013

Change the Weather History Date:

Thursday, January 17, 2013

  Actual Average Record
Temperature  
Mean Temperature 58 °F -  
Max Temperature 80 °F 76 °F 93 °F (2000)
Min Temperature 35 °F 46 °F 30 °F (2007)
Degree Days  
Heating Degree Days 8    
Growing Degree Days 8 (Base 50)    
Moisture  
Dew Point 20 °F    
Average Humidity 27    
Maximum Humidity 49    
Minimum Humidity 8    
Precipitation  
Precipitation 0.00 in - - ()
Sea Level Pressure  
Sea Level Pressure 30.09 in    
Wind  
Wind Speed 1 mph ()    
Max Wind Speed 5 mph    
Max Gust Speed -    
Visibility 9.2 miles    
Events      
Averages and records for this station are not official NWS values.
T = Trace of Precipitation, MM = Missing Value Source: Averaged Metar Reports

Daily Weather History Graph

Daily Weather History Graph

Search for Another Location

Airport or City:

Trip Planner

Search our weather history database for the weather conditions in past years. The results will help you decide how hot, cold, wet, or windy it might be!

Date:

Astronomy

Jan. 17, 2013 Rise Set
Actual Time 7:18 AM MST 5:50 PM MST
Civil Twilight 6:53 AM MST 6:16 PM MST
Nautical Twilight 6:24 AM MST 6:45 PM MST
Astronomical Twilight 5:55 AM MST 7:13 PM MST
Moon 11:01 AM MST (1/17) No Moon Set
Length of Visible Light 11h 22m
Length of Day
10h 31m
Waxing Crescent, 38% of the Moon is Illuminated
Jan 17
Waxing Crescent
Jan 18
First Quarter
Jan 26
Full
Feb 3
Last Quarter
Feb 10
New

Hourly Weather History & Observations

Time (MST) Temp. Windchill Dew Point Humidity Pressure Visibility Wind Dir Wind Speed Gust Speed Precip Events Conditions
12:42 AM 44.6 °F - 24.8 °F 46% 30.09 in 10.0 mi Calm Calm - N/A   Clear
1:30 AM 44 °F - 24 °F 32% 30.10 in 5 mi ENE 4.5 mph - -  
1:43 AM 41.0 °F - 23.0 °F 49% 30.08 in 10.0 mi Calm Calm - N/A   Clear
2:42 AM 41.0 °F - 23.0 °F 49% 30.08 in 10.0 mi Calm Calm - N/A   Clear
3:42 AM 41.0 °F - 23.0 °F 49% 30.08 in 10.0 mi Calm Calm - N/A   Clear
4:30 AM 39 °F - 23 °F 40% 30.10 in 5 mi ENE 4.5 mph - -  
4:45 AM 41.0 °F - 21.2 °F 45% 30.07 in 10.0 mi Calm Calm - N/A   Clear
5:43 AM 39.2 °F - 17.6 °F 42% 30.09 in 10.0 mi Calm Calm - N/A   Clear
6:41 AM 39.2 °F 35.9 °F 15.8 °F 39% 30.09 in 10.0 mi NE 4.6 mph - N/A   Clear
7:35 AM 38 °F - 23 °F 41% 30.13 in 7 mi NNE 2.2 mph - -   Clear
7:45 AM 41.0 °F 38.0 °F 15.8 °F 36% 30.09 in 10.0 mi ENE 4.6 mph - N/A   Clear
8:42 AM 46.4 °F - 15.8 °F 29% 30.13 in 10.0 mi Calm Calm - N/A   Clear
9:52 AM 55.4 °F - 17.6 °F 23% 30.15 in 10.0 mi Calm Calm - N/A   Partly Cloudy
10:40 AM 64 °F - 30 °F 17% 30.16 in 7 mi East 2.2 mph - -   Clear
10:42 AM 62.6 °F - 15.8 °F 16% 30.15 in 10.0 mi Calm Calm - N/A   Partly Cloudy
11:42 AM 68.0 °F - 15.8 °F 13% 30.12 in 10.0 mi Calm Calm - N/A   Partly Cloudy
12:41 PM 73.4 °F - 15.8 °F 11% 30.09 in 10.0 mi Calm Calm - N/A   Scattered Clouds
1:43 PM 77.0 °F - 14.0 °F 9% 30.06 in 10.0 mi Calm Calm - N/A   Scattered Clouds
2:48 PM 77.0 °F - 12.2 °F 9% 30.05 in 10.0 mi Calm Calm - N/A   Mostly Cloudy
3:45 PM 80.6 °F - 12.2 °F 8% 30.05 in 10.0 mi Calm Calm - N/A   Mostly Cloudy
4:35 PM 79 °F - 31 °F 9% 30.04 in 7 mi SW 2.2 mph - -   Clear
4:43 PM 80.6 °F - 12.2 °F 8% 30.07 in 12.0 mi Calm Calm - N/A   Mostly Cloudy
5:42 PM 73.4 °F - 14.0 °F 10% 30.06 in 12.0 mi Calm Calm - N/A   Mostly Cloudy
6:50 PM 64.4 °F - 17.6 °F 16% 30.03 in 10.0 mi WSW 3.5 mph - N/A   Mostly Cloudy
7:30 PM 66 °F - 36 °F 21% 30.08 in 5 mi West 4.5 mph - -   Clear
7:41 PM 57.2 °F - 19.4 °F 23% 30.12 in 10.0 mi West 3.5 mph - N/A   Mostly Cloudy
8:44 PM 55.4 °F - 15.8 °F 21% 30.09 in 10.0 mi SW 4.6 mph - N/A   Mostly Cloudy
9:43 PM 53.6 °F - 21.2 °F 28% 30.10 in 10.0 mi Calm Calm - N/A   Mostly Cloudy
10:30 PM 53 °F - 25 °F 21% 30.10 in 5 mi East 2.2 mph - -   Clear
10:46 PM 51.8 °F - 24.8 °F 35% 30.12 in 10.0 mi Calm Calm - N/A   Mostly Cloudy
11:42 PM 51.8 °F - 28.4 °F 41% 30.10 in 10.0 mi Calm Calm - N/A   Mostly Cloudy